Regional Weather Roundup
Issued by NWS

Home | Current Version | Previous Version | Graphics & Text | Print | Product List | Glossary On
Versions: 1 2 3 4 5 6 7 8 9 10 11 12 13 14 15 16 17 18 19 20 21 22 23 24 25 26 27 28
000
ASUS45 KCYS 300510
RWRWY

WYOMING REGIONAL WEATHER ROUNDUP
NATIONAL WEATHER SERVICE CHEYENNE WY
1100 PM MDT FRI APR 29 2016

NOTE:  "FAIR" INDICATES FEW OR NO CLOUDS BELOW 12,000 FEET
WITH NO SIGNIFICANT WEATHER AND/OR OBSTRUCTIONS TO VISIBILITY.

WYZ001-300600-
YELLOWSTONE NATIONAL PARK

CITY           SKY/WX    TMP DP  RH WIND       PRES   REMARKS
LK YELLOWSTONE   N/A     31  24  75 CALM      29.98R
W YELLOWSTONE  NOT AVBL

$$
WYZ002>013-054>058-071-098>099-300600-
NORTHERN WYOMING

CITY           SKY/WX    TMP DP  RH WIND       PRES   REMARKS
JACKSON        CLOUDY    36  36 100 W3        29.93S
CODY           CLOUDY    39  32  75 SW3       29.99S
GREYBULL       CLOUDY    47  32  56 S3        29.98R
WORLAND        CLOUDY    43  38  82 SW5       29.97S
SHERIDAN       CLOUDY    41  36  82 CALM      30.01F
BUFFALO          N/A    N/A N/A N/A MISG      30.01F
GILLETTE       CLOUDY    39  37  92 CALM      30.01S
HULETT         CLOUDY    39  34  81 E6        30.05S WCI  35
NEWCASTLE      CLOUDY    41  32  70 CALM      30.02R

$$
WYZ014>020-022>026-101>103-300600-
CENTRAL WYOMING

CITY           SKY/WX    TMP DP  RH WIND       PRES   REMARKS
BIG PINEY      CLOUDY    34  28  79 S7        29.93R WCI  28
PINEDALE       CLOUDY    32  32 100 CALM      29.94F
DUBOIS         LGT SNOW  30  28  93 SE9       29.97R WCI  22
LANDER         LGT SNOW  33  32  96 W6        29.98S FOG     WCI  28
RIVERTON       LGT RAIN  35  32  88 NW6       29.99S WCI  30
CASPER         CLOUDY    35  32  88 E13       29.96S WCI  26
DOUGLAS        LGT SNOW  33  33 100 CALM      29.99S FOG

$$
WYZ021-027>030-104>119-300600-
SOUTHERN WYOMING

CITY           SKY/WX    TMP DP  RH WIND       PRES   REMARKS
EVANSTON       FAIR      35  26  69 E7        29.90R WCI  29
KEMMERER         N/A     32  30  93 E8        29.93R WCI  25
FORT BRIDGER   CLEAR     34  32  93 SE7       29.94S WCI  28
ROCK SPRINGS   CLOUDY    34  29  82 NE13      29.92S WCI  25
DIXON          CLOUDY    36  32  87 W5        29.87F WCI  32
RAWLINS        CLOUDY    31  29  92 NE10      29.91R FOG     WCI  22
SARATOGA       LGT SNOW  32  32 100 S9        29.88S WCI  24
LARAMIE        LGT SNOW  28  27  96 N3        29.89S FOG
CHEYENNE       LGT SNOW  31  29  92 N8        29.90S FOG     WCI  23
TORRINGTON     LGT SNOW  33  32  96 N5        29.94F FOG     WCI  29
PINE BLUFFS    MIX PCPN  32  32 100 N8        29.91F WCI  25

$$




USA.gov is the U.S. government's official web portal to all federal, state and local government web resources and services.